Theta_e
363 363 363 361 360 359 359 356 353 353 354 350 349 347 343 344 339 336 337 341 341 345 341 339 355 354 357 360 358 358 360 356 355 359 359 359 362 352 345 345 344 345 345 346 346 347 348 347 347 349 350 350 350 351 350 349 350 350 349 349 350 350 350 347 346 346 346 346 345 344 344 343 343 344
366 364 363 361 359 360 358 355 354 355 356 351 351 349 349 348 341 340 337 339 344 344 347 343 344 356 357 356 358 359 359 354 356 357 359 359 360 347 345 344 344 343 343 343 343 344 345 346 345 344 344 344 346 348 349 349 349 349 348 349 350 350 350 347 346 346 346 345 345 344 344 344 343 343
365 365 363 363 360 361 359 358 355 355 355 353 352 351 352 350 347 345 343 337 344 346 342 346 344 345 352 347 350 354 356 355 352 355 358 360 352 347 350 343 342 342 341 340 340 340 340 340 340 340 340 341 342 344 346 347 347 348 348 349 350 349 349 347 345 345 347 346 344 343 344 343 342 343
365 366 364 364 363 362 360 359 357 356 356 354 352 351 351 351 350 349 345 341 340 349 344 345 350 351 350 354 350 352 353 354 351 355 355 359 352 354 354 347 342 340 338 338 338 337 336 336 338 339 340 340 342 343 343 343 343 344 345 346 347 347 347 344 343 344 345 345 344 343 342 342 342 342
364 364 364 365 365 365 362 360 359 357 357 356 353 353 351 349 351 349 346 342 342 348 352 348 347 350 352 346 354 351 351 354 356 350 354 357 355 355 355 355 346 340 337 336 335 335 335 335 337 338 339 340 341 342 342 341 340 340 340 341 340 341 342 341 340 342 343 343 343 343 342 342 341 341
363 363 362 363 365 366 363 361 360 359 357 356 354 354 353 351 352 352 347 346 344 342 350 350 353 350 352 347 354 352 349 349 356 355 353 354 355 354 355 354 354 344 338 334 333 333 333 334 335 336 337 337 338 338 338 338 336 337 337 335 335 335 335 336 338 340 341 341 342 342 342 341 340 339
365 363 361 362 363 363 362 362 361 360 359 358 356 355 355 354 354 355 352 348 345 345 346 352 349 349 352 349 348 353 353 354 354 354 354 352 353 355 354 353 352 344 339 335 333 332 331 332 333 333 335 336 334 335 333 332 332 333 332 331 333 333 332 332 335 338 338 340 341 342 341 340 339 338
365 363 363 363 363 362 361 363 362 361 360 359 358 357 357 356 355 356 355 352 349 348 346 350 351 351 351 350 353 353 352 349 349 351 351 353 353 353 353 353 352 347 339 336 334 332 331 330 330 329 331 331 330 329 328 328 328 328 328 328 329 329 329 329 330 334 334 335 336 339 340 339 338 334
365 365 364 363 364 363 360 361 362 362 361 360 358 357 358 356 356 355 354 354 352 349 347 348 353 354 353 353 352 352 349 349 352 354 353 351 351 355 352 350 350 344 339 337 334 333 331 331 330 329 328 329 328 328 327 326 326 326 325 325 326 326 327 327 326 329 330 331 332 332 335 336 335 333
366 364 365 364 365 363 361 361 362 363 361 360 359 359 358 358 357 356 355 354 353 351 349 350 349 354 351 352 353 354 353 349 347 349 351 355 355 353 351 349 349 350 349 349 347 338 335 333 330 330 330 328 327 327 326 326 325 324 323 321 321 323 325 325 327 326 327 328 330 331 331 333 332 331
364 365 364 365 365 364 364 363 363 363 362 360 361 361 360 360 358 356 355 354 353 352 351 351 351 351 352 352 349 352 354 351 348 346 345 347 352 355 353 351 352 350 349 345 342 343 344 341 339 330 326 327 327 327 327 325 324 323 321 319 318 319 320 321 324 325 325 326 326 326 325 328 330 331
363 364 364 363 365 365 366 365 365 365 363 363 361 361 361 360 357 355 355 354 353 351 351 349 349 351 350 351 353 352 351 347 346 347 345 343 346 348 352 353 351 353 354 351 349 344 341 339 337 330 329 329 329 328 328 328 328 326 323 321 322 321 320 320 322 323 322 322 322 322 322 322 326 328
364 364 363 363 364 366 365 355 354 357 358 363 361 362 362 360 358 356 355 354 353 353 352 351 351 349 348 348 348 347 347 346 346 351 352 348 348 348 347 351 356 354 350 349 348 348 350 349 349 349 350 348 339 335 331 333 334 330 324 322 323 323 322 320 321 322 322 321 321 320 321 321 323 326
363 363 363 363 364 354 350 346 343 339 339 342 354 362 364 361 360 357 356 355 354 353 351 350 350 348 346 347 348 347 347 350 351 348 349 346 347 347 346 347 351 354 350 347 347 349 352 349 348 350 350 350 350 348 345 341 338 334 328 325 323 323 323 321 321 321 321 321 320 319 318 320 322 323
362 363 364 365 365 360 350 353 339 338 336 336 335 336 340 350 360 358 356 356 357 353 352 352 351 348 348 348 348 347 347 348 347 347 348 346 345 344 342 340 348 355 353 351 348 348 351 350 347 348 349 350 351 350 350 340 335 330 329 326 325 324 323 323 323 322 321 320 319 319 318 319 320 320
362 363 362 363 364 364 365 365 364 350 338 334 333 332 332 333 335 340 354 356 355 355 354 353 352 351 349 349 350 349 349 350 350 351 349 347 345 344 342 343 342 352 350 348 346 344 352 351 348 347 349 351 351 349 342 336 334 331 328 328 326 325 324 324 325 325 323 322 321 321 321 320 321 320
362 363 363 362 363 363 361 362 364 366 365 340 331 331 332 331 330 330 330 334 351 355 353 351 351 352 352 351 353 354 353 353 350 351 347 347 346 346 344 344 345 350 353 349 345 343 347 351 348 346 349 351 351 349 338 334 333 331 329 328 327 326 325 324 324 324 323 322 321 321 320 319 319 319
363 363 363 362 362 365 366 366 364 365 366 366 364 356 353 354 349 332 327 327 328 335 344 348 349 353 355 351 355 355 354 352 350 349 347 348 345 345 345 350 350 351 353 347 345 342 344 348 347 346 349 351 352 351 343 334 330 330 328 327 326 325 324 324 323 323 323 322 320 319 318 317 317 317
363 363 364 364 363 364 365 365 364 365 365 365 363 363 362 362 363 362 353 347 345 344 342 343 347 349 351 352 355 357 357 355 354 353 352 351 349 348 350 349 349 349 352 351 346 339 344 349 347 347 349 351 351 352 339 332 330 328 326 326 326 324 323 323 323 322 322 321 319 318 317 316 315 314
364 365 364 364 364 365 365 356 341 348 365 364 362 360 360 361 362 363 360 340 340 350 352 349 348 349 351 338 352 354 354 355 354 356 353 351 348 344 341 339 344 345 352 355 349 343 344 349 345 346 350 350 349 351 351 337 328 327 326 326 325 324 321 321 321 321 321 321 319 318 315 313 313 312
363 364 365 365 364 364 365 351 335 332 340 363 360 359 359 359 361 360 368 335 328 328 327 327 328 328 328 328 326 324 322 336 341 345 341 340 343 340 337 339 340 342 347 350 352 347 343 347 347 345 347 347 346 348 349 351 333 325 324 323 323 322 321 320 319 319 320 320 319 318 316 313 312 313
363 364 356 362 364 364 364 342 331 329 342 361 360 359 358 358 358 359 363 358 348 327 324 322 321 323 325 325 323 323 322 321 326 338 335 341 343 338 338 337 340 343 346 347 351 347 343 345 347 346 346 347 347 346 348 349 346 333 323 320 321 321 320 320 318 319 319 319 318 317 315 312 312 320
362 363 359 352 351 355 353 334 330 327 342 360 361 360 358 355 356 360 365 364 360 354 347 346 346 345 336 341 343 344 329 327 332 339 340 344 343 340 341 341 340 338 339 346 353 344 342 344 345 345 342 339 343 347 347 346 349 350 351 343 333 321 320 320 318 316 316 317 317 317 314 312 314 326
360 361 363 356 333 328 328 326 324 323 325 356 361 361 358 355 356 364 361 360 355 351 348 349 351 351 353 352 351 352 353 353 353 353 351 350 347 342 340 339 339 336 337 345 348 345 344 346 342 346 343 337 334 341 346 346 348 349 349 350 345 329 324 322 318 315 314 315 315 315 313 311 315 328
357 359 360 362 342 326 323 320 318 316 316 327 357 359 357 356 348 343 350 343 342 341 343 344 346 349 351 351 351 350 350 348 348 348 350 350 348 344 341 339 338 337 340 344 339 345 341 341 340 342 342 341 340 339 342 344 346 348 349 350 348 349 344 336 328 328 317 313 313 312 311 311 312 325
358 359 360 363 352 330 322 318 315 312 314 315 344 352 320 320 326 342 343 344 342 343 344 345 345 346 345 344 344 343 343 343 343 344 345 346 347 346 345 342 339 336 337 344 332 343 341 338 339 338 339 338 337 337 337 340 345 347 349 348 348 348 351 341 334 333 331 325 321 315 316 311 313 317
359 361 363 363 352 328 318 315 312 312 311 323 337 312 313 319 324 336 341 343 342 341 342 341 341 341 342 343 344 344 343 342 344 343 343 344 344 344 344 343 343 341 342 344 346 345 342 339 341 339 336 337 335 336 338 337 338 344 345 345 346 347 350 344 337 336 335 330 328 316 312 310 312 316
359 361 363 358 317 312 306 305 307 309 323 334 308 311 315 321 328 340 341 339 340 340 339 341 342 344 344 342 341 339 340 339 342 341 342 342 344 344 343 344 342 343 342 342 343 343 342 339 338 339 339 336 335 333 331 337 338 340 341 345 345 346 349 344 339 337 336 334 329 327 321 318 318 320
362 336 313 306 305 305 305 307 310 314 316 312 313 313 319 330 338 340 339 338 339 340 341 342 342 341 341 339 339 342 342 342 343 343 342 342 341 341 341 341 340 340 338 340 340 341 340 338 338 339 339 339 336 335 335 335 336 338 339 340 341 345 346 345 341 338 337 334 330 327 322 321 320 321
317 311 310 309 308 311 318 336 341 335 330 318 318 319 330 339 339 338 338 339 339 341 339 337 336 337 338 337 339 340 340 340 338 338 337 335 335 336 334 332 333 335 335 336 336 336 336 335 335 335 333 335 337 335 336 335 334 337 339 338 341 343 343 343 340 340 337 333 332 327 325 326 325 323
337 328 334 336 327 326 324 329 326 326 326 330 332 334 336 336 336 338 339 339 339 338 336 335 335 335 335 337 337 336 336 335 336 337 334 331 331 330 330 328 327 328 332 334 333 333 334 333 334 334 332 334 336 338 337 337 333 334 336 338 338 332 336 339 341 339 337 335 334 330 329 328 327 326
349 341 323 324 336 335 335 334 334 334 334 333 333 336 336 335 335 333 333 335 338 337 335 334 334 334 335 334 334 333 333 333 334 335 332 329 328 327 327 325 325 326 328 330 331 333 334 333 334 335 336 336 332 335 337 336 335 335 335 336 337 338 338 336 337 336 337 337 333 328 326 326 325 325
346 341 340 340 339 339 335 334 332 331 331 332 333 336 336 335 335 335 336 336 335 334 334 333 333 332 333 333 333 332 332 333 332 334 329 329 327 327 327 324 324 324 324 325 328 331 333 335 339 338 339 340 339 339 335 332 334 337 337 337 337 337 337 334 334 332 333 330 327 327 326 328 328 326
343 342 342 340 339 336 334 332 331 330 333 333 333 333 328 335 334 334 334 333 333 335 334 333 332 332 331 331 331 332 330 331 330 330 325 328 328 326 324 323 323 325 325 325 327 329 332 335 337 339 340 341 342 343 342 337 335 338 340 341 338 335 333 331 333 334 332 329 328 326 326 325 326 325
343 340 337 334 334 334 334 332 331 332 332 335 333 332 332 332 331 330 330 330 330 330 331 331 330 330 330 330 330 329 329 328 328 330 329 327 327 325 323 323 323 324 325 326 327 329 331 333 334 334 335 336 336 340 341 344 342 342 343 344 344 339 334 330 330 332 332 331 331 327 325 325 322 323
339 337 334 332 333 333 331 330 331 331 332 333 333 331 330 330 331 331 329 329 332 330 330 329 329 329 329 329 328 328 327 326 328 327 325 326 324 324 324 324 324 325 326 327 327 330 332 332 332 330 327 328 328 328 332 337 339 342 338 337 342 337 336 330 330 331 331 331 330 328 322 318 318 319
334 334 333 332 331 331 330 329 330 331 332 332 332 332 331 330 330 332 332 332 332 330 328 330 329 328 328 327 328 326 326 326 325 326 325 325 325 325 323 323 324 325 325 327 329 330 330 329 329 327 324 323 322 322 326 337 333 330 343 338 338 337 333 328 328 329 330 330 329 328 325 321 319 319
329 329 328 327 328 328 328 328 328 329 331 332 332 332 332 331 332 333 334 333 329 329 329 328 326 326 328 327 327 327 327 326 325 325 324 325 324 323 322 322 323 324 324 327 327 327 326 325 324 323 322 320 319 320 321 328 332 331 317 322 330 335 330 326 325 326 324 325 324 322 323 321 318 318
327 325 325 326 327 328 329 330 331 332 333 332 332 331 331 331 331 332 330 328 330 329 329 328 327 327 329 329 328 326 327 325 326 324 325 324 324 323 322 322 322 324 324 324 325 325 324 323 321 321 321 320 319 320 323 323 322 321 318 306 316 329 328 328 326 323 318 314 314 315 315 316 315 315
327 327 326 327 327 328 328 329 329 329 330 332 332 332 331 330 330 331 329 328 329 330 330 328 327 325 329 328 327 327 327 327 326 325 325 324 324 323 323 323 322 322 322 322 322 322 322 321 323 322 322 323 325 327 327 327 323 320 319 313 304 315 325 328 321 317 314 314 314 311 310 313 311 314
328 327 328 329 330 330 330 329 329 329 330 330 331 325 329 329 330 329 328 326 327 329 328 329 329 329 328 328 328 326 326 325 326 326 326 325 323 323 320 318 324 323 321 320 321 320 320 323 325 320 327 328 329 330 324 317 312 312 312 313 307 306 308 313 319 317 314 315 313 311 310 310 310 312
329 328 328 330 330 330 330 329 329 328 327 328 329 328 327 327 326 320 324 324 328 329 329 328 329 329 327 327 327 326 326 325 325 325 326 324 323 323 321 321 323 323 322 320 319 321 324 326 326 326 325 324 322 317 311 311 309 309 310 312 314 310 308 308 307 310 316 316 314 311 309 310 312 310
329 330 329 329 329 328 328 327 326 327 326 326 326 326 326 327 327 327 327 328 328 328 328 327 328 328 328 327 327 328 325 324 325 325 325 324 323 322 321 322 323 324 323 323 323 323 324 325 324 322 322 320 318 316 311 311 311 311 311 311 312 314 315 312 309 309 309 309 310 314 316 314 310 306
329 328 328 328 327 327 326 326 325 325 325 325 324 325 325 326 326 325 326 326 327 327 327 327 327 327 328 328 329 327 324 324 325 326 324 324 324 324 323 323 323 325 323 323 323 322 323 323 323 321 319 317 317 315 313 312 311 312 311 313 314 314 314 315 314 312 311 310 309 309 311 310 310 311
326 326 325 324 323 323 323 324 324 324 324 324 325 324 324 324 324 325 326 326 327 327 327 327 327 329 329 328 328 325 325 321 322 326 324 323 323 323 323 324 322 323 322 323 322 321 322 322 321 321 319 317 317 315 314 313 312 312 312 312 312 313 314 313 311 309 309 309 308 309 309 311 311 309
Wind_Speed
7 6 7 6 5 5 4 4 4 4 3 4 4 4 5 4 6 7 7 6 5 2 3 3 2 2 3 3 4 4 6 8 7 7 7 8 8 9 13 14 15 15 16 16 16 16 16 16 17 17 17 17 17 16 16 16 15 15 15 14 13 13 13 11 11 10 9 9 9 9 9 9 8 8
7 6 5 5 5 5 5 5 5 4 4 4 5 5 5 4 6 6 8 9 5 5 4 4 2 2 3 3 3 4 5 7 7 8 8 9 10 12 13 14 16 16 17 17 17 17 17 17 17 17 17 18 18 18 18 17 17 17 16 16 15 14 14 14 12 11 10 11 11 11 10 10 10 8
7 6 6 6 6 5 6 5 5 4 4 5 5 5 4 5 6 6 6 9 5 2 4 2 3 2 2 4 4 4 5 6 8 8 8 9 12 12 11 14 16 17 17 17 17 18 18 18 18 18 18 18 18 19 19 19 19 18 18 17 15 16 15 15 13 12 11 11 12 12 12 11 10 9
7 6 7 7 6 5 5 5 5 5 5 5 5 5 5 5 6 5 6 8 11 4 5 5 5 6 6 4 6 6 5 5 8 8 8 10 10 9 11 15 17 18 18 18 18 19 19 19 19 19 19 19 19 19 20 20 20 19 19 19 18 17 16 15 14 13 13 13 13 12 13 12 11 10
8 8 8 7 7 6 6 5 5 5 5 5 5 5 5 6 5 6 6 8 11 8 5 6 7 5 5 8 5 7 7 6 6 8 9 10 9 9 9 10 15 18 19 20 20 20 20 20 20 21 21 20 21 21 21 21 20 20 20 20 19 18 17 16 15 15 14 14 14 13 14 13 12 10
8 7 10 9 8 7 7 6 6 6 6 6 6 6 6 6 5 5 6 7 8 12 5 6 5 6 5 7 7 8 9 9 6 7 8 8 9 9 9 10 10 16 18 20 21 21 21 21 21 21 22 22 22 22 23 22 22 21 21 21 20 20 19 17 17 17 16 15 15 15 14 14 13 13
7 8 9 9 8 7 7 7 7 7 7 6 6 7 5 6 6 5 7 7 9 12 11 6 8 7 6 8 8 8 8 8 8 8 9 9 8 8 10 10 10 12 16 19 20 21 21 21 21 22 23 23 23 24 24 23 23 22 22 22 21 21 20 19 19 19 18 17 16 15 15 15 14 13
8 9 9 9 7 7 9 7 6 6 6 6 6 7 6 6 6 6 6 8 9 9 11 9 8 8 7 7 7 7 7 9 9 9 9 9 10 10 9 10 11 12 15 17 18 19 20 21 21 22 23 23 24 24 24 24 23 22 23 22 22 22 21 20 20 20 19 18 18 17 16 16 15 14
9 9 10 9 8 8 9 9 7 6 7 6 6 7 6 6 6 5 6 8 8 9 11 11 8 7 7 7 7 8 9 8 8 9 10 11 11 11 12 11 11 14 15 14 16 17 19 21 21 22 23 24 24 24 24 24 24 23 23 23 22 22 21 20 20 20 19 18 18 18 17 17 16 15
9 10 10 9 8 8 9 8 7 6 9 8 7 8 7 6 5 6 8 8 9 10 11 10 10 7 7 7 7 7 7 8 9 9 10 11 11 11 11 12 11 8 6 6 9 14 17 20 23 23 23 24 24 24 24 24 24 24 23 22 22 21 21 20 20 19 19 19 19 19 18 17 17 16
10 10 9 9 9 10 10 9 8 7 8 9 9 8 7 7 7 8 8 9 10 9 9 9 9 9 8 7 9 7 6 7 8 10 11 11 9 10 10 10 8 7 7 11 16 15 13 14 15 19 23 23 22 23 23 23 24 23 23 22 21 21 20 20 20 19 19 19 19 19 19 18 18 17
11 11 10 10 10 10 10 9 9 8 8 7 9 8 8 8 9 10 9 10 10 10 10 10 10 8 8 8 8 6 5 7 8 10 10 12 10 9 9 9 7 5 6 10 12 13 14 15 17 17 17 19 21 23 23 25 24 24 23 22 22 21 21 21 21 20 20 20 20 19 19 18 18 18
11 11 10 10 10 10 10 11 10 8 6 7 7 8 8 9 10 11 11 11 11 11 10 10 10 11 10 9 8 8 7 9 11 7 6 9 9 11 13 9 5 7 9 11 12 11 9 9 10 10 11 12 17 20 24 21 23 24 23 23 23 22 22 22 22 21 21 20 20 20 19 19 19 18
11 11 11 10 11 10 11 12 13 12 12 11 11 9 8 9 9 10 10 10 10 11 11 11 9 10 12 11 9 9 10 9 8 8 6 8 11 12 13 12 8 7 7 9 11 11 8 9 11 10 12 10 11 11 12 14 17 20 24 25 24 24 24 23 23 22 21 20 20 20 20 19 19 19
11 11 10 10 10 11 11 12 13 13 13 14 15 15 14 12 12 12 11 10 10 10 12 11 9 10 13 11 10 9 10 7 6 6 5 8 11 11 12 15 5 8 7 7 8 10 7 8 10 10 12 11 10 11 13 17 20 23 21 22 24 25 26 25 24 23 22 21 21 21 20 20 20 19
10 11 10 10 9 9 10 9 9 12 15 15 15 16 16 15 14 14 13 13 13 13 10 9 11 11 11 11 10 9 7 5 6 5 5 7 10 12 13 10 12 1 6 6 8 13 9 7 10 12 13 11 12 14 17 19 21 21 22 22 23 25 26 26 25 24 24 23 23 22 22 21 21 20
11 10 10 10 9 9 9 9 10 9 9 14 18 17 16 15 15 16 17 19 15 13 13 12 13 12 11 12 7 4 4 5 10 8 7 6 9 12 13 13 13 5 6 4 9 14 14 6 10 13 14 13 13 15 19 23 22 21 22 23 24 25 25 25 25 24 25 25 24 24 23 22 22 21
12 12 11 10 10 9 9 9 10 10 10 9 8 9 9 10 13 16 18 20 23 21 15 12 14 15 10 12 1 5 4 7 8 9 8 10 14 16 18 15 14 13 4 9 12 17 17 11 12 15 15 12 12 14 17 19 20 21 22 24 24 25 25 25 25 25 24 24 24 24 23 23 22 22
13 12 11 12 12 11 10 10 10 11 10 9 9 11 12 10 11 10 12 12 12 13 13 13 10 13 15 14 9 10 9 8 10 12 12 10 11 13 16 16 18 18 12 13 11 18 15 11 13 15 15 13 12 13 16 20 21 21 22 24 24 25 24 23 24 24 24 24 23 23 22 23 23 22
12 12 12 12 12 11 12 11 13 12 10 10 11 12 13 12 11 9 10 15 16 16 12 10 12 13 14 12 14 11 10 12 12 10 9 8 9 13 13 15 14 15 13 6 10 15 17 13 15 16 14 13 14 14 14 16 19 23 24 24 24 23 22 23 23 24 24 24 23 24 24 24 23 23
13 12 12 12 11 12 11 11 14 14 11 10 12 12 13 13 11 11 5 14 20 21 19 17 15 15 17 20 20 19 13 12 10 9 11 14 13 12 15 16 13 16 14 11 12 15 18 15 14 17 15 15 17 16 15 14 15 21 23 24 24 23 23 24 24 23 25 25 24 25 25 24 23 24
11 13 15 13 12 12 12 12 13 13 11 9 11 12 13 14 13 12 8 4 10 15 15 11 11 16 19 20 21 20 16 12 7 9 12 14 11 12 13 16 15 17 16 16 11 14 17 16 14 16 15 14 14 17 16 15 16 16 19 24 24 24 24 25 23 21 23 24 23 24 25 24 23 17
11 12 12 15 15 13 13 13 11 11 10 9 11 11 11 13 14 11 7 6 7 7 5 6 9 11 12 12 11 12 15 12 12 12 13 12 12 13 13 14 15 17 14 10 7 12 15 14 14 13 14 16 13 13 15 16 14 14 11 12 16 22 24 23 22 22 22 21 23 23 24 23 21 12
11 11 11 11 15 18 18 17 14 9 11 9 10 10 10 9 13 1 2 4 7 8 4 7 6 8 7 8 10 10 9 8 8 10 10 10 10 12 13 14 13 15 14 10 9 13 14 13 17 13 14 18 18 11 12 14 14 15 15 10 9 15 20 18 13 21 23 25 24 23 24 24 23 13
12 10 10 10 12 17 17 16 15 13 12 11 8 10 10 5 3 5 1 4 8 6 8 7 7 7 7 7 7 8 7 7 7 7 9 9 9 11 13 15 16 17 16 13 12 13 16 15 17 15 16 16 18 18 16 15 15 12 12 12 11 9 9 9 10 12 19 25 24 24 23 25 28 19
11 11 10 9 9 11 13 13 13 12 9 9 7 5 11 14 12 4 6 5 6 6 5 4 4 5 7 7 7 8 8 8 7 8 8 8 9 10 11 13 15 15 15 12 10 13 15 16 15 16 15 15 21 17 20 16 14 13 12 13 13 12 9 9 11 12 9 9 10 16 18 25 26 25
11 10 9 9 6 8 9 8 7 6 10 10 7 14 16 15 17 15 7 6 7 7 6 6 6 7 7 6 7 7 6 6 7 8 9 10 10 11 13 14 15 17 16 16 15 17 16 17 15 16 18 18 19 18 15 17 15 9 12 13 13 12 8 10 11 11 11 11 13 21 20 22 24 27
10 9 9 4 11 9 10 10 11 10 8 8 13 14 15 16 14 11 9 6 6 7 7 7 7 5 5 5 6 6 6 7 8 10 11 11 11 11 12 14 16 16 17 17 15 15 15 17 16 15 16 17 18 18 19 15 13 14 15 14 12 11 9 10 10 10 11 11 12 11 11 11 14 17
8 3 10 12 11 11 12 14 12 10 11 14 12 13 14 11 6 8 10 10 8 7 6 4 4 5 5 5 7 7 8 9 9 8 8 9 10 10 10 12 13 13 13 13 14 14 14 14 15 14 14 14 15 16 14 18 14 14 12 12 8 7 9 10 11 12 12 14 15 15 16 17 13 13
7 8 10 12 13 11 11 9 7 7 8 11 14 14 14 9 9 9 8 7 7 5 3 3 4 4 5 6 7 8 8 8 7 7 9 10 10 10 11 12 12 12 13 14 15 15 14 14 13 14 14 13 13 15 17 17 17 13 13 12 12 8 7 8 11 12 10 13 15 16 15 14 16 18
4 7 7 7 8 8 9 9 11 11 10 9 8 7 6 6 6 6 6 6 5 4 2 3 3 4 5 6 7 7 7 7 7 7 8 9 10 11 12 13 15 15 13 13 14 14 13 14 13 14 15 14 13 13 15 15 15 13 13 12 11 12 7 11 11 14 14 13 13 13 9 6 9 15
7 7 8 9 8 8 8 7 6 5 5 5 6 5 6 6 6 6 6 6 4 4 3 3 3 4 5 5 5 6 6 7 7 6 8 9 11 11 12 12 14 15 15 15 15 14 13 13 13 13 12 14 16 16 14 14 11 13 14 12 11 11 10 10 11 10 11 11 9 10 12 12 13 13
8 7 6 6 6 5 7 6 6 6 5 5 5 6 6 7 7 7 6 6 5 5 5 4 3 3 4 4 4 5 6 6 7 6 8 9 9 10 10 12 14 14 16 17 15 14 13 14 13 12 13 14 16 17 14 14 12 12 11 12 10 11 8 8 10 11 8 8 9 10 11 15 16 16
10 9 6 5 6 6 5 6 6 6 6 6 6 5 5 6 5 5 5 4 4 4 3 2 2 2 3 3 4 4 5 6 7 6 7 9 9 9 11 12 13 13 13 14 15 14 14 12 12 13 12 13 13 14 13 12 13 13 10 8 9 10 9 8 9 9 11 12 9 8 8 9 10 10
10 11 8 6 5 6 5 5 5 4 5 5 6 6 5 5 5 4 4 2 2 2 2 2 1 1 3 4 4 5 5 6 7 6 7 9 10 11 12 12 13 14 15 15 15 13 11 13 14 14 10 9 11 12 12 12 12 12 11 9 7 9 8 8 9 9 11 9 10 13 10 5 7 8
9 8 8 7 7 6 6 4 4 4 4 4 4 5 5 5 4 3 3 1 1 1 1 1 1 2 3 4 4 5 5 6 6 8 9 9 11 11 11 12 13 14 14 14 15 15 13 13 13 15 14 12 12 14 12 7 11 8 10 11 7 6 7 7 9 8 8 9 12 12 11 12 11 11
7 5 5 6 5 4 5 4 3 3 3 3 3 3 4 4 4 3 2 2 1 1 2 1 2 3 3 4 4 4 5 6 7 7 8 9 9 11 12 11 12 12 13 13 13 13 13 13 12 11 11 11 10 12 14 11 4 6 9 9 9 5 3 6 9 9 10 10 10 10 11 12 12 12
8 6 6 5 5 5 4 4 4 3 3 3 3 3 3 4 3 3 1 1 1 1 1 1 2 3 3 3 4 4 5 5 6 7 7 9 11 11 12 12 12 12 12 12 12 13 13 12 12 12 12 11 13 14 15 12 12 8 16 12 10 5 5 6 7 9 6 4 4 4 5 8 9 10
6 6 6 6 5 5 4 4 4 3 3 3 3 3 3 3 3 3 2 2 2 2 2 2 2 2 3 3 4 4 4 5 6 6 8 8 9 10 10 10 11 11 13 13 12 13 15 15 16 15 14 14 13 13 12 14 11 9 11 17 10 6 7 8 8 6 7 8 9 10 10 11 14 16
6 5 5 5 5 4 4 4 3 2 3 2 2 1 2 2 2 2 2 2 2 2 2 2 2 2 2 3 4 4 4 5 5 5 6 7 7 7 8 9 10 11 11 12 14 13 15 16 15 15 16 15 14 14 13 8 5 9 11 17 20 12 4 4 8 10 9 8 10 12 12 11 12 10
6 6 6 5 5 4 4 4 3 2 1 2 2 2 1 2 1 2 3 3 2 2 2 2 2 3 3 3 3 4 5 5 6 6 6 7 7 7 8 8 7 9 11 12 13 13 15 14 15 16 15 12 12 8 7 8 9 9 11 12 19 22 22 16 8 7 9 8 9 10 10 10 11 9
6 6 6 5 5 4 4 4 3 2 2 1 1 2 2 2 3 1 1 2 1 2 2 2 2 2 3 3 4 4 4 5 6 6 6 7 8 7 8 8 9 9 10 11 12 13 13 14 14 12 11 11 11 10 10 9 8 8 9 10 11 16 22 23 23 18 11 6 8 11 11 8 6 9
6 6 5 5 5 4 3 3 2 2 2 2 2 2 2 2 2 2 3 2 2 2 2 2 2 3 3 4 4 4 5 6 5 6 6 7 7 8 8 9 9 9 9 8 9 11 12 12 12 12 12 12 11 10 10 10 9 9 9 9 10 9 12 19 22 22 22 20 15 11 4 5 11 11
6 6 5 5 5 5 4 4 3 2 2 2 2 2 3 3 3 3 2 2 2 2 2 2 3 3 4 5 5 4 4 5 5 5 6 6 6 7 7 8 8 8 7 8 8 9 9 10 10 11 11 12 10 10 10 9 10 10 10 10 11 13 11 9 11 14 18 23 22 15 18 17 13 11
7 7 6 6 6 5 5 4 4 3 3 3 3 3 3 3 3 2 1 1 1 2 2 2 3 3 4 4 5 5 5 5 5 4 5 6 6 6 6 7 7 7 7 7 7 7 7 7 8 10 9 9 8 9 9 10 10 10 11 12 13 12 10 8 9 10 11 10 17 17 15 15 16 17
Wind_Direction
238 233 226 230 239 240 230 236 241 234 231 238 240 242 253 263 280 297 296 291 297 250 220 293 135 226 231 234 237 234 237 244 236 236 232 238 245 220 213 223 226 228 230 231 232 233 233 234 236 236 235 236 235 233 233 234 236 238 239 242 243 245 245 244 243 242 233 233 232 229 228 231 234 239
239 231 232 224 236 229 225 231 232 217 216 225 225 229 233 229 251 272 286 293 283 278 254 249 236 166 232 222 227 233 240 242 232 242 242 241 242 236 219 223 226 228 229 230 231 233 234 235 236 237 237 237 236 235 235 235 235 237 239 240 239 237 236 241 239 235 226 228 227 225 224 227 231 233
241 223 227 225 233 230 238 240 234 212 213 223 227 232 223 224 233 251 262 282 281 214 282 270 260 267 230 257 262 242 236 235 230 239 243 243 245 244 239 231 231 231 232 232 231 231 232 233 233 235 236 236 236 236 236 236 237 238 239 239 236 237 235 237 234 230 220 220 224 219 219 223 225 225
237 227 229 224 228 224 224 234 233 222 219 223 231 229 223 226 228 237 250 255 271 251 269 279 273 270 273 245 256 260 255 232 207 240 242 246 249 244 247 237 231 233 233 234 233 232 232 231 232 233 234 235 236 236 235 235 237 238 239 240 239 238 236 233 231 229 226 221 218 215 216 219 220 218
238 245 239 234 232 220 222 229 234 233 223 221 226 226 226 233 222 220 234 255 274 276 242 260 275 279 283 282 244 257 259 248 224 223 240 247 246 244 242 245 229 226 231 233 234 235 234 233 232 233 233 234 234 235 235 234 234 235 237 238 238 236 234 230 227 227 225 222 218 212 213 213 212 211
237 239 250 248 238 222 225 229 231 232 234 228 233 224 227 234 230 206 233 254 268 282 273 267 246 260 233 263 249 252 267 273 246 231 233 236 237 238 242 243 244 223 225 229 233 235 236 236 235 235 235 234 233 233 234 233 231 230 232 233 233 232 229 226 224 223 221 219 216 211 207 208 209 206
228 235 242 245 246 248 232 227 234 236 235 239 242 244 239 241 242 221 215 246 264 275 280 273 276 267 246 249 269 261 258 256 256 258 252 246 240 233 237 244 249 232 222 227 231 234 235 236 236 236 236 236 235 234 234 233 232 230 229 229 229 228 226 222 220 220 218 215 213 206 206 205 204 202
227 233 238 240 237 245 252 240 232 230 228 233 237 247 244 238 244 240 224 226 250 264 276 271 263 268 264 266 261 262 260 265 264 259 264 252 248 249 245 241 245 243 229 227 231 234 236 237 237 237 237 237 236 236 235 234 232 230 230 229 228 227 225 221 218 218 216 213 211 210 207 205 204 202
234 234 236 242 232 236 252 256 242 232 231 225 236 245 243 235 234 231 231 237 235 249 260 271 263 262 265 269 270 269 276 276 266 255 249 255 257 249 250 252 246 244 238 235 236 237 237 238 238 237 237 237 238 238 237 236 235 232 231 230 229 228 226 222 218 217 215 212 210 208 206 204 203 202
232 237 238 234 231 233 240 245 246 244 258 252 235 240 243 242 235 234 239 238 239 242 256 266 282 272 275 280 265 265 259 272 279 274 266 259 248 244 252 251 249 246 244 240 232 234 238 238 238 238 238 238 238 240 240 240 238 236 234 232 231 230 228 225 221 218 215 211 209 207 205 204 203 201
238 238 238 235 230 232 234 241 243 240 243 256 243 233 240 242 240 244 246 241 242 244 255 267 269 281 278 267 273 262 248 258 262 275 281 273 255 246 243 252 248 245 248 243 239 243 241 235 235 233 235 239 239 240 242 242 241 240 237 235 233 231 229 226 223 220 216 212 208 206 204 203 203 202
242 241 242 240 235 232 231 233 238 235 239 243 265 259 260 257 261 265 260 264 268 269 271 274 282 278 278 276 268 267 240 262 259 239 248 268 276 267 260 252 262 261 245 260 263 245 240 249 250 252 246 238 238 240 242 243 243 240 238 236 234 231 228 225 222 220 216 211 208 206 204 203 203 202
240 242 242 242 239 232 223 223 228 235 236 254 259 264 262 262 265 268 270 274 275 277 276 279 281 282 282 271 268 269 254 249 253 255 243 272 285 286 284 268 220 253 263 269 270 267 260 254 252 247 242 233 231 236 235 243 241 239 235 233 233 231 228 225 221 218 214 210 207 206 204 203 203 202
243 244 245 245 237 225 217 216 219 225 228 228 242 254 254 261 265 270 274 277 281 282 282 282 281 279 280 275 249 251 248 248 268 284 294 294 292 287 279 273 219 203 237 258 261 257 238 240 251 246 247 238 224 239 231 228 232 231 226 227 227 227 228 225 220 217 214 209 206 204 204 203 203 202
247 249 245 248 236 221 222 226 222 224 222 225 231 239 242 245 253 268 274 276 275 277 281 285 279 266 270 258 252 248 264 265 278 304 330 301 286 280 289 295 298 155 197 240 266 277 229 224 249 251 247 239 235 236 238 231 226 232 230 224 224 225 225 223 218 215 212 209 205 203 202 202 203 202
245 246 247 244 244 240 234 233 221 218 224 227 228 233 236 233 237 244 254 267 272 272 275 270 264 262 246 248 250 261 279 307 299 272 265 252 269 282 283 280 282 245 173 246 267 275 261 189 240 256 250 239 234 237 239 234 230 227 226 227 225 224 225 223 217 212 208 207 205 202 201 200 201 200
242 243 243 246 243 248 209 211 236 245 230 215 226 233 233 235 228 232 240 244 250 262 258 255 261 251 259 262 260 265 298 296 282 281 266 243 265 270 274 273 277 284 153 260 269 271 274 246 246 250 253 244 239 240 234 234 234 228 225 225 225 225 224 222 218 214 208 205 202 201 199 198 198 198
241 240 242 245 247 243 240 247 244 236 234 244 231 227 227 231 228 222 230 237 242 244 248 252 256 260 256 263 230 134 188 249 269 275 267 278 280 282 278 281 285 285 244 252 269 277 275 265 259 258 261 254 248 242 243 234 229 227 225 225 224 224 223 220 216 214 211 206 202 200 197 196 196 196
241 242 242 244 248 247 245 248 238 246 250 252 260 266 265 249 253 231 218 222 232 244 246 249 254 271 268 270 275 258 252 232 250 264 272 271 272 275 284 288 281 281 263 250 246 271 275 264 266 266 263 263 256 253 246 235 232 227 224 224 225 224 222 219 217 214 212 207 201 198 198 195 194 194
241 241 241 245 247 248 250 233 210 218 232 250 259 265 267 271 268 260 221 207 212 225 231 234 244 248 260 269 265 261 268 270 268 269 274 277 267 270 277 279 290 292 291 258 266 278 288 281 282 279 273 272 266 259 259 240 220 225 223 223 223 224 219 220 217 214 212 208 202 196 197 194 192 192
242 240 240 238 246 247 248 231 208 207 203 236 251 256 266 272 275 276 245 195 211 223 229 234 239 256 267 265 264 265 253 246 267 280 281 270 266 267 271 271 271 271 283 285 286 287 284 286 288 288 283 283 279 272 266 267 236 217 222 219 219 219 217 216 216 212 213 209 202 197 194 192 190 189
242 241 234 237 245 249 248 238 214 198 181 220 237 249 260 270 272 271 261 188 239 242 255 265 263 256 258 269 275 277 270 253 225 244 252 262 271 266 262 269 273 280 283 281 286 281 278 286 282 283 283 278 268 270 267 259 259 235 218 216 214 215 216 215 212 212 215 212 205 201 193 189 185 182
242 245 236 226 232 242 248 243 229 190 183 219 237 244 257 265 267 258 264 236 250 258 261 278 276 278 268 265 271 277 279 260 221 227 240 263 263 267 272 275 283 286 276 278 253 264 277 283 277 282 290 282 272 267 271 267 259 252 235 208 216 216 217 214 203 207 214 213 211 204 195 186 177 180
241 240 243 226 214 227 236 244 245 217 182 217 240 250 252 249 254 53 137 236 254 267 276 267 264 268 278 278 277 276 274 259 241 237 239 250 262 269 274 276 275 275 281 290 284 277 281 281 281 280 279 285 289 277 270 275 266 265 266 243 214 205 215 218 200 205 207 209 208 204 196 184 179 180
243 243 239 246 217 213 223 230 236 236 204 205 227 234 248 247 96 75 228 221 236 244 251 257 264 269 273 275 270 270 271 278 280 272 260 258 261 266 273 277 277 276 274 277 278 275 277 278 279 280 273 271 272 281 276 273 271 264 260 254 247 213 177 186 186 203 216 212 206 201 195 187 188 186
241 240 241 240 231 200 204 214 223 224 212 180 209 181 122 135 116 77 244 249 244 252 282 294 306 300 294 291 288 288 293 294 291 292 290 284 277 269 266 269 274 277 276 276 268 270 274 274 272 277 274 273 277 272 282 276 274 270 262 261 256 250 177 165 180 201 197 190 199 204 197 193 192 195
236 239 237 243 201 164 176 186 188 158 143 156 156 131 147 164 161 167 193 233 281 298 309 307 293 283 274 278 281 282 290 296 300 295 289 284 278 269 267 264 266 273 279 283 278 276 272 272 272 273 278 280 280 284 275 280 281 277 262 253 262 261 208 166 181 196 195 193 206 194 188 189 198 202
238 237 243 193 127 138 133 122 120 129 139 122 134 139 142 159 169 174 180 205 225 242 247 246 253 261 275 290 291 301 309 305 305 294 289 284 275 272 273 273 278 279 281 281 282 277 275 276 279 276 276 277 279 282 287 283 283 283 278 277 259 242 208 179 178 188 193 192 194 174 174 184 199 206
245 98 98 111 125 125 124 124 119 109 111 125 133 139 142 141 159 169 183 194 208 225 240 257 284 292 297 301 300 306 307 301 292 286 288 293 295 293 288 286 286 285 283 285 285 283 282 279 280 282 278 279 280 282 283 287 291 286 285 293 263 222 211 197 183 189 194 196 193 179 187 191 179 188
83 109 114 116 117 121 131 139 136 124 128 135 139 148 156 162 168 170 168 177 193 212 223 262 278 293 303 306 313 309 302 301 302 314 315 318 315 318 316 311 303 301 297 296 294 292 288 284 283 286 286 280 278 285 286 288 287 287 289 277 272 255 215 208 202 204 189 195 193 188 192 188 185 182
111 121 132 130 124 114 120 102 107 113 126 125 131 145 151 141 145 154 156 163 176 173 202 230 258 280 292 297 296 296 303 297 302 319 315 313 313 317 318 312 309 310 306 305 302 298 295 291 289 286 284 284 279 275 281 286 288 292 286 278 272 260 223 207 205 207 201 199 198 194 186 163 177 183
167 132 107 112 117 118 117 121 127 134 129 129 137 142 138 135 128 117 124 147 156 175 195 214 231 253 261 272 278 290 292 297 307 313 315 321 316 317 318 314 311 315 314 318 315 309 297 290 289 286 277 280 283 283 284 283 281 282 280 277 265 256 242 212 211 202 193 189 176 184 187 183 176 181
161 131 134 127 138 143 139 141 139 139 146 140 134 143 151 146 148 159 171 163 163 178 194 196 220 233 257 266 279 286 295 301 304 316 332 327 322 322 319 316 316 319 319 317 317 316 316 312 295 288 288 288 288 287 284 288 285 281 280 281 274 261 238 205 204 199 169 167 187 186 188 193 192 188
166 170 145 147 149 154 148 140 145 155 154 144 148 143 147 148 142 151 151 149 153 171 186 200 215 251 283 296 312 312 310 309 311 314 321 338 338 330 330 327 323 325 321 318 319 318 319 313 309 301 291 283 284 276 271 278 283 283 275 273 267 265 237 207 206 184 175 182 163 170 182 187 188 182
172 172 162 147 138 131 134 147 154 141 137 154 152 146 140 131 136 136 110 104 139 156 181 195 249 324 328 321 324 319 318 315 315 327 339 347 347 344 340 332 331 329 329 326 326 325 317 319 320 314 295 282 289 282 254 248 269 270 282 270 261 260 238 203 200 187 181 176 173 183 183 156 171 173
161 156 146 148 146 151 150 141 129 143 147 139 141 144 140 124 113 109 98 105 186 136 139 33 26 350 327 322 324 318 323 321 329 347 354 350 351 348 338 336 332 331 331 333 336 335 332 328 331 331 327 325 318 314 313 214 212 276 288 290 281 262 241 201 202 191 174 179 182 179 171 173 171 159
120 120 116 119 124 124 122 126 128 130 123 131 139 131 130 126 111 101 111 202 177 103 47 356 21 349 333 332 322 321 334 343 347 348 352 355 352 348 346 335 333 334 332 331 336 337 341 340 341 340 333 327 324 319 308 322 258 249 266 280 294 268 212 174 188 193 188 189 188 186 183 171 163 163
129 121 118 114 120 123 128 130 136 150 150 152 137 139 132 116 111 120 170 161 98 73 73 28 30 353 344 342 334 343 345 348 340 345 347 354 359 355 349 343 335 335 332 330 337 341 344 341 343 342 336 328 324 321 322 324 327 357 20 354 308 278 158 155 177 189 160 100 109 87 86 140 150 151
78 102 108 118 124 129 138 144 153 149 138 146 161 144 129 127 129 139 126 89 60 45 55 36 26 357 322 336 333 332 343 344 345 352 353 354 353 349 343 341 338 339 338 337 340 343 347 345 344 337 332 324 315 314 314 314 335 353 354 5 344 290 186 187 180 150 123 107 93 81 73 84 85 98
106 107 111 113 123 128 128 120 116 127 159 161 129 98 111 123 130 120 102 71 54 38 13 25 355 316 329 348 342 341 342 342 343 348 350 344 352 342 345 339 342 346 342 341 343 344 346 344 343 340 331 320 309 305 302 321 6 4 14 9 15 37 357 186 134 129 113 108 112 109 116 112 121 134
111 111 116 122 121 121 126 124 141 158 125 103 95 90 63 64 56 65 37 26 10 355 4 353 347 333 0 350 353 342 344 345 347 347 344 341 341 338 332 325 339 351 350 348 346 344 344 342 340 328 331 336 333 337 6 13 13 17 24 26 21 41 50 54 76 101 108 122 115 114 120 127 131 130
110 109 111 114 120 128 138 142 137 136 127 116 90 104 115 122 83 105 97 96 344 340 325 337 347 336 1 359 354 345 348 351 346 343 341 342 343 342 347 354 356 353 355 351 350 345 344 344 346 351 357 360 6 20 31 22 32 33 40 37 38 42 52 59 59 57 65 84 123 121 111 104 101 114
104 109 106 98 92 91 94 101 106 109 120 123 111 110 116 107 95 94 49 43 6 332 340 328 340 349 357 360 357 347 351 353 345 339 337 341 342 348 353 1 357 352 354 347 345 350 352 355 1 3 10 17 25 34 39 41 43 44 43 44 48 51 54 57 59 57 51 46 52 64 61 133 147 139
89 84 75 69 71 72 72 73 79 85 92 95 87 77 66 72 82 72 56 20 352 338 329 327 333 346 350 355 343 346 359 352 336 333 334 332 331 340 343 354 353 352 353 352 347 355 357 7 15 18 24 29 32 35 40 44 48 50 49 50 55 58 55 48 50 50 49 37 20 33 56 59 58 90
69 70 69 60 57 55 58 63 67 68 66 69 73 68 69 70 75 78 80 36 338 328 316 330 337 339 340 342 340 340 346 322 316 329 322 325 334 340 349 356 353 348 355 355 349 360 3 11 22 31 42 50 49 55 56 57 58 58 57 58 59 53 46 35 45 51 46 43 15 24 50 74 89 88